Flag for Burkina Faso Weather past 2 weeks in Koudougou, Burkina Faso

Now
73 °F

Passing clouds.


Feels Like: 68 °F
Forecast: 71 / 88 °F
Wind: 5 mph from Southeast

Location: Ouagadougou Airport

Current Time: Sep 19, 2014 at 3:55:17 AM

Latest Report: Sep 19, 2014 at 3:00 AM


Visibility: N/A

Pressure: 29.89 "Hg

Humidity: 100%

Dew point: 73 °F

Location of KoudougouLocation

Historic Weather in Koudougou — Graph

°F

Koudougou temperature yesterday

Maximum temperature yesterday: 88 °F (at 1:00 PM)
Minimum temperature yesterday: 75 °F (at 1:00 AM)
Average temperature yesterday: 79 °F

Past Weeks' High & Low Weather Summary

 TemperatureHumidityPressure
High93 °F (Sep 13, 1:00 PM)100% (Sep 5, 1:00 AM)30.04 "Hg (Sep 5, 1:00 AM)
Low70 °F (Sep 14, 5:00 AM)49% (Sep 13, 1:00 PM)29.83 "Hg (Sep 6, 4:00 PM)
Average79 °F81%29.94 "Hg
* Reported Sep 4 2:00 AM — Sep 19 2:00 AM, Koudougou, Weather by CustomWeather, © 2014

Note: Actual official high and low records may vary slightly from our data, if they occured in-between our weather recording intervals... More about our weather records

Advertising

Koudougou weather history for previous 24 hours

 ConditionsComfort  
Time TempWeatherWind HumidityBarometerVisibility
2:00 AM
Sep 19
75 °FPassing clouds.6 mph94%29.89 "HgN/A
1:00 AM75 °FPassing clouds.3 mph94%29.92 "HgN/A
12:00 AM75 °FPassing clouds.5 mph94%29.95 "HgN/A
11:00 PM
Sep 18
75 °FPassing clouds.2 mph94%29.98 "HgN/A
10:00 PM75 °FThunderstorms. Passing clouds.6 mph89%29.98 "HgN/A
9:00 PM75 °FThunderstorms. Passing clouds.7 mph89%29.95 "Hg5 mi
8:00 PM75 °FThunderstorms. Passing clouds.7 mph83%29.92 "Hg5 mi
7:00 PM75 °FThunderstorms. Passing clouds.9 mph83%29.89 "Hg4 mi
6:00 PM84 °FScattered clouds.9 mph66%29.89 "HgN/A
5:00 PM86 °FScattered clouds.7 mph62%29.86 "HgN/A
4:00 PM88 °FScattered clouds.8 mph62%29.86 "HgN/A
3:00 PM86 °FBroken clouds.8 mph62%29.86 "HgN/A
2:00 PM88 °FBroken clouds.5 mph62%29.89 "HgN/A
1:00 PM88 °FBroken clouds.5 mph62%29.92 "HgN/A
12:00 PM86 °FScattered clouds.3 mph66%29.95 "HgN/A
11:00 AM82 °FBroken clouds.5 mph74%29.98 "HgN/A
10:00 AM81 °FBroken clouds.6 mph79%29.98 "HgN/A
9:00 AM79 °FBroken clouds.5 mph84%30.01 "HgN/A
8:00 AM77 °FBroken clouds.6 mph89%29.98 "HgN/A
7:00 AM75 °FPartly sunny.10 mph94%29.98 "HgN/A
6:00 AM75 °FPartly sunny.3 mph94%29.92 "HgN/A
5:00 AM75 °FPassing clouds.5 mph94%29.92 "HgN/A
4:00 AM75 °FPassing clouds.5 mph94%29.92 "HgN/A
3:00 AM77 °FThunderstorms. Passing clouds.6 mph89%29.92 "HgN/A
Weather by CustomWeather, © 2014

See weather overviewHow to use our weather pages